When you browse on this site, cookies collect data to enhance your experience and personalize the content and advertising you see.
Visit our Privacy Policy to learn more. By continuing to use the site, you agree to this use of cookies and data.
  • In Hungary
  • List of Countries
  • For 7 days
  • Water Temperature
  • Satellite Maps
  • Weather Map
  • News
  • Weather Widgets
  • user-avatar
    Login

    Hourly Weather Pruniers

    Today, 18 November, Sunday

    Time Temperature Precipitation Wind Pressure Humidity
    00:00 +2°C° 0 mm 3 mps 749 mmHg 84%
    01:00 +2°C° 0 mm 3 mps 749 mmHg 85%
    02:00 +2°C° 0 mm 3 mps 749 mmHg 87%
    03:00 +3°C° 0 mm 2 mps 749 mmHg 88%
    04:00 +3°C° 0 mm 2 mps 749 mmHg 89%
    05:00 +2°C° 0 mm 2 mps 749 mmHg 89%
    06:00 +2°C° 0 mm 2 mps 749 mmHg 89%
    07:00 +3°C° 0 mm 2 mps 749 mmHg 84%
    08:00 +4°C° 0 mm 2 mps 749 mmHg 79%
    09:00 +4°C° 0 mm 3 mps 749 mmHg 74%
    10:00 +5°C° 0 mm 3 mps 749 mmHg 69%
    11:00 +8°C° 0 mm 3 mps 749 mmHg 63%
    12:00 +10°C° 0 mm 3 mps 749 mmHg 58%
    13:00 +9°C° 0 mm 3 mps 748 mmHg 60%
    14:00 +9°C° 0 mm 3 mps 748 mmHg 61%
    15:00 +8°C° 0 mm 4 mps 748 mmHg 63%
    16:00 +8°C° 0 mm 3 mps 748 mmHg 68%
    17:00 +5°C° 0 mm 3 mps 748 mmHg 73%
    18:00 +4°C° 0 mm 3 mps 748 mmHg 78%
    19:00 +3°C° 0 mm 3 mps 748 mmHg 80%
    20:00 +2°C° 0 mm 3 mps 748 mmHg 81%
    21:00 +2°C° 0 mm 3 mps 748 mmHg 83%
    22:00 +1°C° 0 mm 3 mps 747 mmHg 83%
    23:00 +1°C° 0 mm 3 mps 747 mmHg 83%

    Tomorrow, 19 November, Monday

    Time Temperature Precipitation Wind Pressure Humidity
    00:00 0°C° 0 mm 3 mps 747 mmHg 83%
    01:00 0°C° 0 mm 3 mps 746 mmHg 83%
    02:00 0°C° 0 mm 3 mps 746 mmHg 83%
    03:00 -1°C° 0 mm 3 mps 745 mmHg 83%
    04:00 -1°C° 0 mm 3 mps 745 mmHg 81%
    05:00 -1°C° 0 mm 3 mps 745 mmHg 79%
    06:00 -1°C° 0 mm 3 mps 745 mmHg 78%
    07:00 -2°C° 0 mm 4 mps 745 mmHg 72%
    08:00 -1°C° 0 mm 4 mps 745 mmHg 66%
    09:00 -1°C° 0 mm 5 mps 744 mmHg 60%
    10:00 +1°C° 0 mm 5 mps 744 mmHg 57%
    11:00 +2°C° 0 mm 5 mps 743 mmHg 54%
    12:00 +3°C° 0 mm 6 mps 743 mmHg 50%
    13:00 +3°C° 0 mm 6 mps 742 mmHg 53%
    14:00 +3°C° 0 mm 6 mps 742 mmHg 55%
    15:00 +3°C° 0 mm 6 mps 742 mmHg 58%
    16:00 +3°C° 0 mm 5 mps 741 mmHg 61%
    17:00 +2°C° 0 mm 5 mps 741 mmHg 65%
    18:00 +2°C° 0 mm 5 mps 741 mmHg 69%
    19:00 +1°C° 0 mm 4 mps 740 mmHg 70%
    20:00 +1°C° 0 mm 4 mps 740 mmHg 72%
    21:00 +1°C° 0 mm 4 mps 740 mmHg 73%
    22:00 +1°C° 0 mm 4 mps 739 mmHg 75%
    23:00 0°C° 0 mm 4 mps 739 mmHg 76%

    Day after tomorrow, 20 November, Tuesday

    Time Temperature Precipitation Wind Pressure Humidity
    00:00 0°C° 0 mm 4 mps 738 mmHg 77%
    01:00 0°C° 0.1 mm 4 mps 738 mmHg 78%
    02:00 0°C° 0.1 mm 4 mps 738 mmHg 79%
    03:00 0°C° 0.1 mm 4 mps 737 mmHg 80%
    04:00 -1°C° 0.1 mm 4 mps 737 mmHg 82%
    05:00 0°C° 0.1 mm 3 mps 737 mmHg 83%
    06:00 0°C° 0.1 mm 3 mps 736 mmHg 85%
    07:00 0°C° 0.1 mm 3 mps 736 mmHg 84%
    08:00 0°C° 0.1 mm 3 mps 736 mmHg 83%
    09:00 0°C° 0.1 mm 3 mps 736 mmHg 82%
    10:00 +2°C° 0.1 mm 2 mps 736 mmHg 80%
    11:00 +2°C° 0.1 mm 2 mps 736 mmHg 79%
    12:00 +3°C° 0.1 mm 2 mps 736 mmHg 77%
    13:00 +4°C° 0.1 mm 1 mps 736 mmHg 78%
    14:00 +4°C° 0.1 mm 1 mps 736 mmHg 79%
    15:00 +4°C° 0.1 mm 1 mps 736 mmHg 79%
    16:00 +3°C° 0.1 mm 1 mps 737 mmHg 83%
    17:00 +2°C° 0.1 mm 1 mps 737 mmHg 86%
    18:00 +2°C° 0.1 mm 1 mps 737 mmHg 90%
    19:00 +1°C° 0 mm 1 mps 738 mmHg 91%
    20:00 +1°C° 0 mm 1 mps 738 mmHg 92%
    21:00 +1°C° 0 mm 1 mps 739 mmHg 93%
    22:00 -2°C° 0 mm 2 mps 739 mmHg 94%
    23:00 -2°C° 0 mm 2 mps 739 mmHg 95%

    21 November, Wednesday

    Time Temperature Precipitation Wind Pressure Humidity
    00:00 -2°C° 0 mm 2 mps 739 mmHg 95%
    01:00 -3°C° 0 mm 2 mps 740 mmHg 95%
    02:00 -3°C° 0 mm 2 mps 740 mmHg 95%
    03:00 -3°C° 0 mm 2 mps 740 mmHg 96%
    04:00 -3°C° 0 mm 2 mps 740 mmHg 95%
    05:00 -3°C° 0 mm 2 mps 740 mmHg 95%
    06:00 -3°C° 0 mm 2 mps 741 mmHg 95%
    07:00 -2°C° 0 mm 2 mps 741 mmHg 90%
    08:00 -1°C° 0 mm 2 mps 742 mmHg 86%
    09:00 +1°C° 0 mm 2 mps 742 mmHg 81%
    10:00 +2°C° 0 mm 2 mps 743 mmHg 75%
    11:00 +3°C° 0 mm 2 mps 743 mmHg 69%
    12:00 +4°C° 0 mm 2 mps 743 mmHg 64%
    13:00 +5°C° 0 mm 1 mps 743 mmHg 65%
    14:00 +5°C° 0 mm 1 mps 743 mmHg 67%
    15:00 +6°C° 0 mm 1 mps 743 mmHg 68%
    16:00 +4°C° 0 mm 1 mps 743 mmHg 72%
    17:00 +3°C° 0 mm 1 mps 744 mmHg 76%
    18:00 +2°C° 0 mm 1 mps 744 mmHg 80%
    19:00 +1°C° 0 mm 1 mps 744 mmHg 81%
    20:00 +1°C° 0 mm 1 mps 745 mmHg 83%
    21:00 +1°C° 0 mm 1 mps 745 mmHg 84%
    22:00 0°C° 0 mm 1 mps 745 mmHg 84%
    23:00 0°C° 0 mm 1 mps 745 mmHg 85%

    22 November, Thursday

    Time Temperature Precipitation Wind Pressure Humidity
    00:00 0°C° 0 mm 1 mps 745 mmHg 85%
    01:00 0°C° 0 mm 1 mps 745 mmHg 85%
    02:00 0°C° 0 mm 1 mps 745 mmHg 85%
    03:00 -2°C° 0 mm 2 mps 745 mmHg 86%
    04:00 -2°C° 0 mm 2 mps 745 mmHg 86%
    05:00 -2°C° 0 mm 2 mps 745 mmHg 86%
    06:00 -2°C° 0 mm 2 mps 745 mmHg 86%
    07:00 -1°C° 0 mm 2 mps 746 mmHg 81%
    08:00 +2°C° 0 mm 2 mps 746 mmHg 77%
    09:00 +3°C° 0 mm 2 mps 746 mmHg 72%
    10:00 +5°C° 0 mm 2 mps 746 mmHg 69%
    11:00 +7°C° 0 mm 2 mps 746 mmHg 65%
    12:00 +9°C° 0 mm 2 mps 746 mmHg 62%
    13:00 +8°C° 0 mm 2 mps 746 mmHg 66%
    14:00 +8°C° 0 mm 2 mps 745 mmHg 70%
    15:00 +8°C° 0 mm 2 mps 745 mmHg 74%
    16:00 +7°C° 0 mm 2 mps 745 mmHg 78%
    17:00 +5°C° 0 mm 2 mps 746 mmHg 83%
    18:00 +4°C° 0 mm 2 mps 746 mmHg 87%
    19:00 +4°C° 0 mm 2 mps 746 mmHg 88%
    20:00 +4°C° 0 mm 2 mps 746 mmHg 89%
    21:00 +4°C° 0 mm 2 mps 747 mmHg 90%
    22:00 +3°C° 0 mm 2 mps 747 mmHg 90%
    23:00 +3°C° 0 mm 2 mps 747 mmHg 90%

    23 November, Friday

    Time Temperature Precipitation Wind Pressure Humidity
    00:00 +3°C° 0 mm 2 mps 747 mmHg 91%
    01:00 +3°C° 0 mm 2 mps 747 mmHg 90%
    02:00 +3°C° 0 mm 2 mps 747 mmHg 89%
    03:00 +3°C° 0 mm 2 mps 747 mmHg 88%
    04:00 +3°C° 0 mm 2 mps 748 mmHg 87%
    05:00 +3°C° 0 mm 2 mps 748 mmHg 86%
    06:00 +4°C° 0 mm 2 mps 748 mmHg 85%
    07:00 +4°C° 0 mm 2 mps 748 mmHg 82%
    08:00 +5°C° 0 mm 2 mps 749 mmHg 79%
    09:00 +6°C° 0 mm 2 mps 749 mmHg 76%
    10:00 +8°C° 0 mm 2 mps 749 mmHg 71%
    11:00 +9°C° 0 mm 2 mps 749 mmHg 67%
    12:00 +12°C° 0 mm 2 mps 749 mmHg 63%
    13:00 +12°C° 0 mm 1 mps 749 mmHg 66%
    14:00 +12°C° 0 mm 1 mps 749 mmHg 69%
    15:00 +11°C° 0 mm 1 mps 749 mmHg 72%
    16:00 +10°C° 0 mm 1 mps 749 mmHg 76%
    17:00 +8°C° 0 mm 1 mps 749 mmHg 81%
    18:00 +7°C° 0 mm 1 mps 749 mmHg 85%
    19:00 +7°C° 0 mm 1 mps 750 mmHg 86%
    20:00 +6°C° 0 mm 1 mps 750 mmHg 87%
    21:00 +5°C° 0 mm 2 mps 750 mmHg 87%
    22:00 +5°C° 0 mm 2 mps 750 mmHg 87%
    23:00 +4°C° 0 mm 2 mps 750 mmHg 86%
    Show more